[[{"header":{"parameterUnit":"m.s-1","parameterCategory":1,"la1":30.2991,"la2":30.254,"lo1":-89.0895,"lo2":-89.0444,"dy":0.0017,"dx":0.0017,"nx":28,"ny":28,"refTime":"2023-08-16T03:00:00:Z","depth":0,"parameterNumber":2,"parameterNumberName":"U-component_of_WINDS"},"data":[0,0,0,0,0,0,0,0,0,0,0,0,0,0,0,0,0,0,0,0,0,0,0,0,0,0,0,0,0,0,0,0,0,0,0,0,0,0,0,0,0,0,0,0,0,0,0,0,0,0,0,0,0,0,0,0,0,0,-2.6943,-2.6943,0,-2.6943,-2.6943,-2.6943,-2.6875,-2.6873,-2.6871,-2.6869,-2.687,-2.6872,-2.6873,0,0,0,0,0,0,0,0,0,0,0,0,0,-2.6885,-2.6886,-2.6943,-2.6943,-2.6943,-2.6943,-2.6943,-2.6943,-2.6875,-2.6873,-2.6871,-2.6869,-2.6869,-2.6871,-2.6873,0,0,0,0,0,0,0,0,0,0,0,0,0,-2.69,-2.6887,-2.6943,-2.6909,-2.6906,-2.6943,-2.6943,-2.6943,-2.6875,-2.6873,-2.687,-2.6868,-2.6869,-2.6871,-2.6874,-2.6943,0,0,-2.6881,-2.6882,0,0,0,0,0,0,0,0,-2.6899,-2.6902,-2.6914,-2.6911,-2.6908,-2.6906,-2.6922,-2.6943,-2.6876,-2.6887,-2.6869,-2.6866,-2.6884,-2.6885,-2.6891,-2.6943,-2.6943,-2.6882,-2.6883,-2.6884,-2.6885,0,0,0,0,0,0,0,-2.6898,-2.6902,-2.6943,-2.6914,-2.6911,-2.6894,-2.6893,-2.6926,-2.6901,-2.6886,-2.6881,-2.6882,-2.6882,-2.6889,-2.6891,-2.6943,-2.6882,-2.6884,-2.6885,-2.6886,-2.7052,-2.7055,0,0,0,0,0,0,-2.6902,-2.6901,-2.6943,-2.6943,-2.6897,-2.6897,-2.6896,-2.6909,-2.69,-2.6896,-2.6884,-2.6879,-2.6886,-2.6888,-2.689,-2.6971,-2.6884,-2.6887,-2.6888,-2.7049,-2.7053,-2.7056,0,0,0,0,0,0,-2.6901,-2.6906,-2.6943,-2.6921,-2.6924,-2.6901,-2.6916,-2.6911,-2.6917,-2.6899,-2.6894,-2.6896,-2.6884,-2.6887,-2.693,-2.697,-2.6888,-2.689,-2.7046,-2.705,-2.7054,-2.7134,0,0,0,0,0,0,-2.6899,-2.6906,-2.6932,-2.6922,-2.6925,-2.6983,-2.6919,-2.6913,-2.6922,-2.6915,-2.6908,-2.6905,-2.6882,-2.6927,-2.6933,-2.6972,-2.6892,-2.7042,-2.7048,-2.7053,-2.7127,-2.714,-2.7151,0,0,0,0,0,-2.6897,-2.6954,-2.6934,-2.6939,-2.6957,-2.6985,-2.6987,-2.696,-2.6925,-2.6951,-2.6939,-2.6905,-2.6965,-2.6932,-2.6938,-2.6979,-2.7039,-2.7046,-2.7052,-2.7122,-2.7138,-2.7151,0,0,0,0,0,0,-2.697,-2.6952,-2.6929,-2.6984,-2.6987,-2.6974,-2.7006,-2.6977,-2.6989,-2.6982,-2.6948,-2.6947,-2.6996,-2.6991,-2.6955,-2.7046,-2.6996,-2.7004,-2.7047,-2.7062,-2.7073,-2.7074,-2.6894,0,0,0,0,0,-2.6992,-2.7016,-2.7,-2.705,-2.7052,-2.7029,-2.704,-2.7019,-2.702,-2.7021,-2.7012,-2.7014,-2.7034,-2.7047,-2.7064,-2.7126,-2.7124,-2.7157,-2.7169,-2.7179,-2.7187,-2.722,-2.7235,-2.7077,-2.7077,-2.7077,0,0,-2.7039,-2.7032,-2.705,-2.7064,-2.7064,-2.709,-2.703,-2.706,-2.7079,-2.7025,-2.7066,-2.706,-2.706,-2.7114,-2.7137,-2.7111,-2.723,-2.7187,-2.7195,-2.7198,-2.7228,-2.7243,-2.7257,-2.7081,-2.7081,-2.708,0,0,-2.7138,-2.7135,-2.7177,-2.7177,-2.7177,-2.7161,-2.7171,-2.7162,-2.7156,-2.7196,-2.7157,-2.7179,-2.7212,-2.7215,-2.7221,-2.732,-2.7289,-2.7326,-2.7389,-2.7422,-2.7434,-2.7445,-2.7482,-2.7495,-2.7334,-2.7334,-2.7334,0,-2.7196,-2.7233,-2.7202,-2.7235,-2.7243,-2.7194,-2.7237,-2.7239,-2.7245,-2.7251,-2.7223,-2.7265,-2.7261,-2.7315,-2.734,-2.7345,-2.7356,-2.7328,-2.7435,-2.7446,-2.7455,-2.749,-2.7504,-2.7339,-2.7338,-2.7338,-2.7337,0,-2.7305,-2.7332,-2.7365,-2.7372,-2.7384,-2.7421,-2.7396,-2.7412,-2.7389,-2.7376,-2.7418,-2.7413,-2.7428,-2.7439,-2.7417,-2.749,-2.7474,-2.7441,-2.7391,-2.7476,-2.7508,-2.752,-2.7345,-2.7344,-2.7342,-2.7341,0,0,-2.745,-2.7439,-2.7452,-2.7455,-2.7451,-2.7471,-2.7506,-2.7521,-2.7535,-2.754,-2.757,-2.76,-2.7569,-2.7575,-2.7553,-2.7582,-2.7663,-2.7545,-2.7545,-2.7568,-2.7744,-2.777,-2.7786,-2.7642,-2.7644,-2.7646,-2.7744,0,-2.7546,-2.7606,-2.7579,-2.7642,-2.7667,-2.7622,-2.7652,-2.7654,-2.7643,-2.7662,-2.7649,-2.7672,-2.7629,-2.7633,-2.7659,-2.7647,-2.7698,-2.764,-2.767,-2.7671,-2.7672,-2.7802,-2.783,-2.7923,-2.7756,-2.7758,-2.776,0,-2.7667,-2.7677,-2.7743,-2.7735,-2.7745,-2.7773,-2.7785,-2.7803,-2.7804,-2.7794,-2.7801,-2.7773,-2.7807,-2.7756,-2.7804,-2.7765,-2.7776,-2.7772,-2.7775,-2.7777,-2.7721,-2.7809,-2.7951,-2.7966,-2.7779,-2.7777,-2.7776,0,-2.7767,-2.7798,-2.7841,-2.7845,-2.7836,-2.7858,-2.7855,-2.7853,-2.7864,-2.7874,-2.7881,-2.7895,-2.7903,-2.7914,-2.789,-2.7855,-2.7942,-2.7889,-2.7935,-2.7936,-2.7956,-2.7956,-2.8103,-2.7961,-2.7961,-2.7961,-2.796,0,-2.7879,-2.7921,-2.7886,-2.7913,-2.796,-2.7928,-2.7974,-2.7967,-2.7966,-2.799,-2.7951,-2.7976,-2.7942,-2.7963,-2.7945,-2.7987,-2.7991,-2.7984,-2.7979,-2.7989,-2.799,-2.7996,-2.7989,-2.7964,-2.7964,-2.7963,-2.7962,0,-2.7999,-2.7978,-2.8022,-2.8011,-2.8009,-2.8044,-2.8034,-2.8058,-2.8044,-2.8077,-2.8082,-2.8061,-2.8083,-2.806,-2.8082,-2.8069,-2.8127,-2.8112,-2.8127,-2.8123,-2.8172,-2.8168,-2.8329,-2.8349,-2.8194,-2.8195,-2.8196,0,-2.8072,-2.8104,-2.8096,-2.811,-2.811,-2.8132,-2.8143,-2.8113,-2.8126,-2.8129,-2.8154,-2.8173,-2.8187,-2.8226,-2.8212,-2.8228,-2.8214,-2.8269,-2.8216,-2.8225,-2.8216,-2.8215,-2.8219,-2.8281,-2.8283,-2.8284,-2.8285,0,-2.8205,-2.8192,-2.8209,-2.8223,-2.8237,-2.8247,-2.8253,-2.8267,-2.8236,-2.8252,-2.8275,-2.8286,-2.8308,-2.8328,-2.834,-2.8337,-2.8307,-2.8302,-2.8314,-2.8325,-2.8333,-2.833,-2.8158,-2.8299,-2.8297,-2.8297,-2.8296,-2.8295,-2.8304,-2.8331,-2.8329,-2.835,-2.8351,-2.8358,-2.8381,-2.837,-2.8389,-2.8404,-2.8385,-2.8413,-2.8413,-2.8426,-2.8428,-2.845,-2.8426,-2.8443,-2.8447,-2.8453,-2.846,-2.8328,-2.8451,-2.8451,-2.8451,-2.845,-2.845,0,-2.8436,-2.8433,-2.8452,-2.8462,-2.8478,-2.8447,-2.8453,-2.8469,-2.8494,-2.8497,-2.8511,-2.8538,-2.8557,-2.8545,-2.8562,-2.8582,-2.8568,-2.8587,-2.8586,-2.8586,-2.848,-2.8468,-2.8598,-2.8598,-2.8598,-2.8598,-2.8598,-2.8598,-2.8506,-2.8549,-2.8537,-2.8581,-2.8577,-2.8605,-2.861,-2.8617,-2.8619,-2.865,-2.8666,-2.8658,-2.8655,-2.8671,-2.8687,-2.8683,-2.8692,-2.8716,-2.8707,-2.8608,-2.8594,-2.858,-2.8569,-2.8718,-2.8718,-2.8812,-2.8813,-2.8814]},{"header":{"parameterUnit":"m.s-1","parameterCategory":1,"la1":30.2991,"la2":30.254,"lo1":-89.0895,"lo2":-89.0444,"dy":0.0017,"dx":0.0017,"nx":28,"ny":28,"refTime":"2023-08-16T03:00:00:Z","depth":0,"parameterNumber":3,"parameterNumberName":"V-component_of_WINDS"},"data":[0,0,0,0,0,0,0,0,0,0,0,0,0,0,0,0,0,0,0,0,0,0,0,0,0,0,0,0,0,0,0,0,0,0,0,0,0,0,0,0,0,0,0,0,0,0,0,0,0,0,0,0,0,0,0,0,0,0,-3.5537,-3.5537,0,-3.5527,-3.5527,-3.5527,-3.5485,-3.5485,-3.5484,-3.5483,-3.5473,-3.5474,-3.5474,0,0,0,0,0,0,0,0,0,0,0,0,0,-3.5521,-3.5522,-3.5537,-3.5537,-3.5537,-3.5527,-3.5527,-3.5527,-3.5486,-3.5484,-3.5483,-3.5482,-3.5473,-3.5474,-3.5475,0,0,0,0,0,0,0,0,0,0,0,0,0,-3.5521,-3.5522,-3.5537,-3.5515,-3.5513,-3.5527,-3.5527,-3.5527,-3.5486,-3.5484,-3.5483,-3.5482,-3.5473,-3.5474,-3.5475,-3.5509,0,0,-3.5478,-3.5478,0,0,0,0,0,0,0,0,-3.5521,-3.5522,-3.5518,-3.5517,-3.5514,-3.5506,-3.5518,-3.5521,-3.5486,-3.5496,-3.5483,-3.5481,-3.5485,-3.5485,-3.5486,-3.5509,-3.5508,-3.5478,-3.5478,-3.5479,-3.5479,0,0,0,0,0,0,0,-3.5521,-3.5522,-3.5533,-3.5518,-3.5516,-3.5506,-3.5504,-3.5518,-3.5499,-3.5495,-3.5492,-3.5492,-3.5484,-3.5486,-3.5486,-3.5508,-3.5478,-3.5478,-3.5479,-3.5479,-3.5559,-3.556,0,0,0,0,0,0,-3.5524,-3.5522,-3.5533,-3.5533,-3.5514,-3.5507,-3.5506,-3.551,-3.5499,-3.5496,-3.5493,-3.549,-3.5485,-3.5485,-3.5485,-3.5525,-3.5479,-3.548,-3.548,-3.5557,-3.5559,-3.5561,0,0,0,0,0,0,-3.5524,-3.5526,-3.5534,-3.5527,-3.5527,-3.5509,-3.5515,-3.5511,-3.5512,-3.5497,-3.5493,-3.5498,-3.5484,-3.5484,-3.5504,-3.5524,-3.548,-3.5481,-3.5556,-3.5558,-3.556,-3.5606,0,0,0,0,0,0,-3.5524,-3.5526,-3.5539,-3.5527,-3.5528,-3.5552,-3.5516,-3.5512,-3.5514,-3.551,-3.5501,-3.5498,-3.5482,-3.5502,-3.5505,-3.5525,-3.5482,-3.5554,-3.5557,-3.5559,-3.5602,-3.5609,-3.5615,0,0,0,0,0,-3.5524,-3.5552,-3.554,-3.5541,-3.5543,-3.5553,-3.5553,-3.5535,-3.5516,-3.5529,-3.5519,-3.5498,-3.5522,-3.5505,-3.5507,-3.5528,-3.5552,-3.5556,-3.5559,-3.5599,-3.5608,-3.5615,0,0,0,0,0,0,-3.5567,-3.555,-3.5536,-3.5562,-3.5559,-3.5546,-3.5562,-3.5544,-3.5547,-3.5543,-3.552,-3.5519,-3.5542,-3.5537,-3.5518,-3.5561,-3.5534,-3.5538,-3.5563,-3.5571,-3.5578,-3.5579,-3.5482,0,0,0,0,0,-3.5579,-3.5588,-3.5574,-3.5598,-3.5597,-3.558,-3.5584,-3.557,-3.5566,-3.5565,-3.5556,-3.5554,-3.5561,-3.5566,-3.5571,-3.5601,-3.5599,-3.5617,-3.5623,-3.5629,-3.5632,-3.5648,-3.5656,-3.5572,-3.5572,-3.5572,0,0,-3.5605,-3.5597,-3.5604,-3.5606,-3.5602,-3.5613,-3.5579,-3.5592,-3.5599,-3.5567,-3.5585,-3.5579,-3.5574,-3.5599,-3.561,-3.5596,-3.5655,-3.5633,-3.5638,-3.5638,-3.5653,-3.5661,-3.5668,-3.5575,-3.5574,-3.5574,0,0,-3.5657,-3.5652,-3.5672,-3.5669,-3.5664,-3.5652,-3.5657,-3.5647,-3.5641,-3.5659,-3.5635,-3.5644,-3.5656,-3.5654,-3.5655,-3.5707,-3.5688,-3.5709,-3.5743,-3.5759,-3.5766,-3.5771,-3.579,-3.5797,-3.5713,-3.5713,-3.5713,0,-3.569,-3.5705,-3.5684,-3.5698,-3.57,-3.5671,-3.569,-3.5689,-3.5686,-3.5688,-3.5672,-3.5687,-3.5682,-3.5706,-3.5719,-3.5721,-3.5726,-3.571,-3.5766,-3.5772,-3.5777,-3.5794,-3.5802,-3.5716,-3.5716,-3.5715,-3.5715,0,-3.5745,-3.5756,-3.5772,-3.577,-3.5774,-3.5791,-3.5773,-3.5779,-3.5765,-3.5755,-3.5774,-3.5767,-3.577,-3.5775,-3.5761,-3.5798,-3.5789,-3.577,-3.5742,-3.5788,-3.5804,-3.5811,-3.572,-3.5719,-3.5718,-3.5717,0,0,-3.5824,-3.5811,-3.5817,-3.5816,-3.5808,-3.5816,-3.5832,-3.5835,-3.5841,-3.584,-3.5853,-3.5864,-3.5847,-3.5848,-3.5833,-3.5847,-3.5889,-3.5827,-3.5826,-3.5839,-3.5929,-3.5943,-3.5952,-3.5877,-3.5878,-3.5879,-3.5929,0,-3.5874,-3.59,-3.5882,-3.5911,-3.5921,-3.5894,-3.5908,-3.5905,-3.5896,-3.5903,-3.5894,-3.5902,-3.5878,-3.5879,-3.5891,-3.5882,-3.5907,-3.5878,-3.5889,-3.589,-3.5891,-3.596,-3.5975,-3.6023,-3.5936,-3.5937,-3.5937,0,-3.5936,-3.5938,-3.5968,-3.5958,-3.5962,-3.5975,-3.5976,-3.5984,-3.598,-3.5973,-3.5974,-3.5956,-3.5971,-3.5944,-3.5965,-3.5945,-3.5949,-3.5945,-3.5946,-3.5947,-3.5916,-3.5962,-3.6038,-3.6045,-3.5947,-3.5946,-3.5946,0,-3.5991,-3.6001,-3.602,-3.602,-3.6009,-3.6019,-3.6015,-3.601,-3.6013,-3.6015,-3.6017,-3.6021,-3.6023,-3.6026,-3.601,-3.5992,-3.6033,-3.6004,-3.6028,-3.6028,-3.6038,-3.6037,-3.6115,-3.604,-3.604,-3.604,-3.604,0,-3.6049,-3.6068,-3.6044,-3.6056,-3.6077,-3.6057,-3.6079,-3.6072,-3.6068,-3.6078,-3.6055,-3.6065,-3.6043,-3.6051,-3.6039,-3.6058,-3.6059,-3.6054,-3.6051,-3.6056,-3.6057,-3.6058,-3.6054,-3.6042,-3.6041,-3.6041,-3.6041,0,-3.6113,-3.6098,-3.6117,-3.6106,-3.6104,-3.612,-3.611,-3.6121,-3.6111,-3.6124,-3.6126,-3.611,-3.6119,-3.6103,-3.611,-3.6101,-3.6128,-3.612,-3.613,-3.6127,-3.6151,-3.6149,-3.6233,-3.6243,-3.6161,-3.6162,-3.6163,0,-3.6151,-3.6165,-3.6156,-3.6161,-3.6158,-3.6167,-3.617,-3.6151,-3.6155,-3.6152,-3.6163,-3.617,-3.6174,-3.6188,-3.6178,-3.6183,-3.6174,-3.6203,-3.6175,-3.618,-3.6175,-3.6174,-3.6175,-3.6209,-3.621,-3.621,-3.6211,0,-3.622,-3.6212,-3.6217,-3.622,-3.6225,-3.6226,-3.6226,-3.6232,-3.6211,-3.6218,-3.6226,-3.6229,-3.6235,-3.6242,-3.6245,-3.6241,-3.6223,-3.622,-3.6226,-3.6232,-3.6237,-3.6234,-3.6145,-3.6218,-3.6218,-3.6217,-3.6217,-3.6216,-3.6272,-3.6284,-3.6279,-3.6286,-3.6284,-3.6284,-3.6294,-3.6285,-3.6291,-3.6295,-3.6283,-3.6294,-3.629,-3.6292,-3.629,-3.6299,-3.6286,-3.6294,-3.6296,-3.6298,-3.6302,-3.6236,-3.6299,-3.6299,-3.6298,-3.6298,-3.6298,0,-3.634,-3.6336,-3.6342,-3.6343,-3.6348,-3.6331,-3.633,-3.6335,-3.6345,-3.6343,-3.6348,-3.6357,-3.6364,-3.6354,-3.6359,-3.6368,-3.636,-3.637,-3.6369,-3.6368,-3.6313,-3.6308,-3.6376,-3.6376,-3.6376,-3.6376,-3.6376,-3.6376,-3.6376,-3.6395,-3.6386,-3.6404,-3.6399,-3.6409,-3.641,-3.6411,-3.6409,-3.6421,-3.6426,-3.6419,-3.6414,-3.6418,-3.6424,-3.6421,-3.6424,-3.6437,-3.6431,-3.638,-3.6372,-3.6365,-3.636,-3.6438,-3.6438,-3.6485,-3.6485,-3.6486]}]]